Ft Lauderdale, FL

4:18 AM EDT on April 21, 2018 (GMT -0400)
Fort Lauderdale-Hollywood International

Weather History for KFLL - June, 2013

Change the Weather History Date:

Thursday, June 13, 2013

  Actual Average Record
Temperature  
Mean Temperature 83 °F 83 °F  
Max Temperature 90 °F 89 °F 94 °F (1924)
Min Temperature 75 °F 78 °F 61 °F (1920)
Degree Days  
Heating Degree Days 0 0  
Month to date heating degree days 0 0  
Since 1 June heating degree days 0 0  
Since 1 July heating degree days 85 112  
Cooling Degree Days 9 18  
Month to date cooling degree days 218 231  
Year to date cooling degree days 1614 1649  
Since 1 June cooling degree days 218 231  
Growing Degree Days 32 (Base 50)    
Moisture  
Dew Point 74 °F    
Average Humidity 78    
Maximum Humidity 100    
Minimum Humidity 56    
Precipitation  
Precipitation 0.00 in 0.32 in 2.28 in (1930)
Month to date precipitation 9.64 4.25  
Year to date precipitation 34.43 21.74  
Snow  
Snow 0.00 in - - ()
Month to date snowfall 0.0  
Since 1 June snowfall 0.0  
Since 1 July snowfall 0.0  
Snow Depth 0.00 in    
Sea Level Pressure  
Sea Level Pressure 30.01 in    
Wind  
Wind Speed 4 mph (SSE)    
Max Wind Speed 9 mph    
Max Gust Speed 9 mph    
Visibility 10 miles    
Events Thunderstorm    
T = Trace of Precipitation, MM = Missing Value Source: NWS Daily Summary

Daily Weather History Graph

Daily Weather History Graph

Search for Another Location

Airport or City:

Astronomy

Jun. 13, 2013 Rise Set
Actual Time 6:28 AM EDT 8:13 PM EDT
Civil Twilight 6:02 AM EDT 8:39 PM EDT
Nautical Twilight 5:30 AM EDT 9:10 PM EDT
Astronomical Twilight 4:57 AM EDT 9:43 PM EDT
Moon 10:42 AM EDT (6/13) 11:43 PM EDT (6/13)
Length of Visible Light 14h 37m
Length of Day
13h 45m
Waxing Crescent, 21% of the Moon is Illuminated
Jun 13
Waxing Crescent
Jun 16
First Quarter
Jun 23
Full
Jun 30
Last Quarter
Jul 8
New

Hourly Weather History & Observations

Time (EDT) Temp. Heat Index Dew Point Humidity Pressure Visibility Wind Dir Wind Speed Gust Speed Precip Events Conditions
12:53 AM 79.0 °F - 75.9 °F 90% 30.03 in 10.0 mi Calm Calm - N/A   Partly Cloudy
1:53 AM 77.0 °F - 75.0 °F 94% 30.02 in 10.0 mi NW 3.5 mph - N/A   Partly Cloudy
2:53 AM 77.0 °F - 75.0 °F 94% 30.01 in 10.0 mi Calm Calm - N/A   Partly Cloudy
3:53 AM 75.9 °F - 75.0 °F 97% 30.01 in 10.0 mi Calm Calm - N/A   Partly Cloudy
4:53 AM 75.9 °F - 75.0 °F 97% 30.01 in 10.0 mi Calm Calm - N/A   Partly Cloudy
5:53 AM 77.0 °F - 75.0 °F 94% 30.01 in 10.0 mi Calm Calm - N/A   Partly Cloudy
6:53 AM 75.9 °F - 73.9 °F 94% 30.02 in 10.0 mi Calm Calm - N/A   Partly Cloudy
7:53 AM 78.1 °F - 75.0 °F 90% 30.03 in 10.0 mi Calm Calm - N/A   Partly Cloudy
8:53 AM 81.0 °F 86.7 °F 75.0 °F 82% 30.04 in 10.0 mi SSW 4.6 mph - N/A   Scattered Clouds
9:53 AM 84.2 °F 90.9 °F 73.4 °F 70% 30.05 in 10.0 mi Calm Calm - N/A   Scattered Clouds
10:53 AM 84.9 °F 90.7 °F 72.0 °F 65% 30.05 in 10.0 mi South 5.8 mph - N/A   Scattered Clouds
11:23 AM 84.2 °F 89.6 °F 71.6 °F 66% 30.04 in 10.0 mi South 10.4 mph - N/A Thunderstorm Thunderstorm
11:53 AM 86.0 °F 89.7 °F 68.7 °F 56% 30.05 in 10.0 mi South 13.8 mph - N/A Thunderstorm Thunderstorm
12:38 PM 84.2 °F 89.6 °F 71.6 °F 66% 30.06 in 10.0 mi North 6.9 mph - N/A   Mostly Cloudy
12:53 PM 83.7 °F 88.6 °F 71.4 °F 66% 30.04 in 10.0 mi North 6.9 mph - N/A   Mostly Cloudy
1:53 PM 89.1 °F 96.0 °F 71.8 °F 57% 30.01 in 10.0 mi East 12.7 mph - N/A   Mostly Cloudy
2:53 PM 89.1 °F 96.0 °F 71.8 °F 57% 29.99 in 10.0 mi ESE 12.7 mph - N/A   Mostly Cloudy
3:53 PM 86.0 °F 95.1 °F 75.2 °F 70% 29.99 in 10.0 mi SE 11.5 mph - N/A   Mostly Cloudy
4:03 PM 86.0 °F 95.1 °F 75.2 °F 70% 29.99 in 10.0 mi SE 11.5 mph - N/A Thunderstorm Thunderstorm
4:53 PM 81.1 °F 89.1 °F 78.4 °F 91% 29.97 in 10.0 mi Calm Calm - 0.03 in   Scattered Clouds
5:53 PM 82.6 °F 91.4 °F 77.2 °F 84% 29.96 in 10.0 mi North 3.5 mph - N/A   Scattered Clouds
6:53 PM 80.4 °F 85.6 °F 74.7 °F 83% - 10.0 mi North 4.6 mph - N/A   Scattered Clouds
7:53 PM 81.1 °F 87.4 °F 75.6 °F 83% 29.96 in 10.0 mi SE 9.2 mph - N/A   Scattered Clouds
8:53 PM 81.0 °F 87.7 °F 76.8 °F 87% 29.96 in 10.0 mi South 4.6 mph - N/A   Scattered Clouds
9:53 PM 80.6 °F 86.8 °F 76.5 °F 87% 29.98 in 10.0 mi Calm Calm - N/A   Partly Cloudy
10:53 PM 79.3 °F - 72.5 °F 79% 29.98 in 10.0 mi NW 3.5 mph - N/A   Partly Cloudy
11:34 PM 78.8 °F - 77.0 °F 94% 29.98 in 10.0 mi Calm Calm - N/A   Partly Cloudy
11:53 PM 78.8 °F - 77.0 °F 94% 29.98 in 10.0 mi SW 4.6 mph - N/A   Partly Cloudy